This is the latest recevied weather packets stored in our database for station/object KI4MRC. If no packets are shown the sender has not sent any weather packets the latest 10 day(s).
| Time | Temp. | Humidity | Pressure | Rain* | Wind** | Luminosity | Snow |
|---|---|---|---|---|---|---|---|
| 1777657769 | 32.22° C | 49% | 1012.2 hPa | 0 mm | - | 1012 W/m² | - |
| 1777657467 | 31.67° C | 48% | 1012.2 hPa | 0 mm | - | 1019 W/m² | - |
| 1777657164 | 31.67° C | 53% | 1012.4 hPa | 0 mm | - | 1006 W/m² | - |
| 1777656861 | 31.67° C | 50% | 1012.4 hPa | 0 mm | - | 1019 W/m² | - |
| 1777656556 | 31.67° C | 52% | 1012.2 hPa | 0 mm | - | 1019 W/m² | - |
| 1777656253 | 31.11° C | 47% | 1012.3 hPa | 0 mm | - | 1033 W/m² | - |
| 1777655948 | 31.67° C | 50% | 1012.3 hPa | 0 mm | - | 1004 W/m² | - |
| 1777655644 | 31.67° C | 51% | 1012.3 hPa | 0 mm | - | 1048 W/m² | - |
| 1777655341 | 31.67° C | 49% | 1012.4 hPa | 0 mm | - | 1045 W/m² | - |
| 1777655038 | 31.67° C | 49% | 1012.4 hPa | 0 mm | - | 1036 W/m² | - |
| 1777654736 | 31.67° C | 54% | 1012.4 hPa | 0 mm | - | 1024 W/m² | - |
| 1777654434 | 31.67° C | 53% | 1012.4 hPa | 0 mm | - | 1020 W/m² | - |
| 1777654131 | 31.11° C | 51% | 1012.6 hPa | 0 mm | - | 1018 W/m² | - |
| 1777653829 | 31.11° C | 50% | 1012.7 hPa | 0 mm | - | 1012 W/m² | - |
| 1777653524 | 31.11° C | 53% | 1012.8 hPa | 0 mm | - | 1048 W/m² | - |
| 1777653221 | 30.56° C | 55% | 1012.8 hPa | 0 mm | - | 1007 W/m² | - |
| 1777652918 | 31.11° C | 50% | 1012.7 hPa | 0 mm | - | 995 W/m² | - |
| 1777652615 | 31.11° C | 52% | 1012.9 hPa | 0 mm | - | 985 W/m² | - |
| 1777652311 | 31.11° C | 54% | 1013 hPa | 0 mm | - | 979 W/m² | - |
| 1777652009 | 31.11° C | 53% | 1012.9 hPa | 0 mm | - | 975 W/m² | - |
| 1777651705 | 31.11° C | 52% | 1013 hPa | 0 mm | - | 970 W/m² | - |
| 1777651402 | 30.56° C | 51% | 1012.9 hPa | 0 mm | - | 971 W/m² | - |
| 1777651099 | 30.56° C | 52% | 1013.1 hPa | 0 mm | - | 966 W/m² | - |
| 1777650796 | 30.56° C | 56% | 1013 hPa | 0 mm | - | 968 W/m² | - |
| 1777650492 | 30.56° C | 57% | 1013.1 hPa | 0 mm | - | 947 W/m² | - |
* Rain latest hour (hover to see other rain measurements)
** Current wind speed in m/s (hover to see current wind gust speed)